| time (UTC) | temp F | wind direction | speed knots | gust knots | rain 1hr in | rain 24hr in | rain mn in | humidity % | barometer mb |
| 20260903060555 | 76 | 65 | 0.0 | 0.0 | 0.00 | 0.06 | 0.00 | 87 | 1024.4 |
| 20260903055754 | 76 | 65 | 0.0 | 0.0 | 0.00 | 0.06 | 0.00 | 86 | 1024.3 |
| 20260903055250 | 76 | 63 | 0.0 | 0.0 | 0.00 | 0.06 | 0.00 | 86 | 1024.4 |
| 20260903054725 | 76 | 136 | 0.0 | 0.0 | 0.00 | 0.06 | 0.00 | 86 | 1024.5 |
| 20260903054224 | 76 | 198 | 0.0 | 0.0 | 0.00 | 0.06 | 0.00 | 86 | 1024.5 |
| 20260903053655 | 76 | 200 | 0.0 | 0.0 | 0.00 | 0.06 | 0.00 | 86 | 1024.4 |
| 20260903053147 | 76 | 222 | 0.0 | 0.0 | 0.00 | 0.06 | 0.00 | 85 | 1024.4 |
| 20260903052627 | 76 | 222 | 0.0 | 0.0 | 0.00 | 0.06 | 0.00 | 85 | 1024.4 |
| 20260903052400 | 76 | 221 | 0.0 | 0.0 | 0.00 | 0.06 | 0.00 | 84 | 1024.4 |
| 20260903052125 | 76 | 222 | 0.0 | 0.0 | 0.00 | 0.06 | 0.00 | 85 | 1024.4 |
| 20260903051057 | 77 | 221 | 0.0 | 0.0 | 0.00 | 0.06 | 0.00 | 84 | 1024.4 |
| 20260903050554 | 77 | 221 | 0.0 | 0.0 | 0.00 | 0.06 | 0.00 | 84 | 1024.4 |
| 20260903050325 | 77 | 221 | 0.0 | 0.0 | 0.00 | 0.06 | 0.00 | 83 | 1024.5 |
| 20260903045825 | 77 | 221 | 0.0 | 0.0 | 0.00 | 0.06 | 0.06 | 83 | 1024.5 |
| 20260903045049 | 77 | 221 | 0.0 | 0.0 | 0.00 | 0.06 | 0.06 | 82 | 1024.5 |
| 20260903044547 | 77 | 221 | 0.0 | 0.0 | 0.00 | 0.06 | 0.06 | 82 | 1024.6 |
| 20260903044022 | 77 | 221 | 0.0 | 0.0 | 0.00 | 0.06 | 0.06 | 82 | 1024.5 |
| 20260903043728 | 77 | 221 | 0.0 | 0.0 | 0.00 | 0.06 | 0.06 | 81 | 1024.5 |
| 20260903042948 | 78 | 221 | 0.0 | 0.0 | 0.00 | 0.06 | 0.06 | 81 | 1024.6 |
| 20260903042444 | 78 | 221 | 0.0 | 0.0 | 0.00 | 0.06 | 0.06 | 81 | 1024.8 |
| 20260903042211 | 78 | 221 | 0.0 | 0.0 | 0.00 | 0.06 | 0.06 | 80 | 1024.8 |
| 20260903041413 | 78 | 221 | 0.0 | 0.0 | 0.00 | 0.06 | 0.06 | 80 | 1024.8 |
| 20260903040911 | 78 | 224 | 0.0 | 0.0 | 0.00 | 0.06 | 0.06 | 80 | 1024.8 |
| 20260903040409 | 78 | 224 | 0.0 | 0.0 | 0.00 | 0.06 | 0.06 | 79 | 1024.8 |
| 20260903035907 | 78 | 224 | 0.0 | 0.0 | 0.00 | 0.06 | 0.06 | 79 | 1024.9 |
| 20260903035401 | 78 | 224 | 0.0 | 0.0 | 0.00 | 0.06 | 0.06 | 78 | 1024.9 |
| 20260903034859 | 78 | 224 | 0.0 | 0.0 | 0.00 | 0.06 | 0.06 | 78 | 1024.8 |
| 20260903034342 | 79 | 225 | 0.0 | 0.0 | 0.00 | 0.06 | 0.06 | 77 | 1024.9 |
| 20260903033838 | 79 | 225 | 0.0 | 0.0 | 0.00 | 0.06 | 0.06 | 77 | 1024.9 |
| 20260903033333 | 79 | 225 | 0.0 | 0.0 | 0.00 | 0.06 | 0.06 | 77 | 1024.9 |
| 20260903032826 | 79 | 224 | 0.0 | 0.0 | 0.00 | 0.06 | 0.06 | 77 | 1024.9 |
| 20260903032306 | 79 | 224 | 0.0 | 0.0 | 0.00 | 0.06 | 0.06 | 76 | 1024.9 |
| 20260903031806 | 79 | 221 | 0.0 | 0.0 | 0.00 | 0.06 | 0.06 | 76 | 1024.9 |
| 20260903031303 | 79 | 221 | 0.0 | 0.0 | 0.00 | 0.06 | 0.06 | 75 | 1024.9 |
| 20260903031035 | 80 | 221 | 0.0 | 0.0 | 0.00 | 0.06 | 0.06 | 75 | 1024.9 |
| 20260903030244 | 80 | 221 | 0.0 | 0.0 | 0.00 | 0.06 | 0.06 | 74 | 1025.0 |
| 20260903025748 | 80 | 221 | 0.0 | 0.0 | 0.00 | 0.06 | 0.06 | 74 | 1024.9 |
| 20260903025235 | 80 | 221 | 0.0 | 0.0 | 0.00 | 0.06 | 0.06 | 73 | 1024.9 |
| 20260903024738 | 81 | 221 | 0.0 | 0.0 | 0.00 | 0.06 | 0.06 | 72 | 1024.9 |
| 20260903024212 | 81 | 224 | 0.0 | 0.0 | 0.00 | 0.06 | 0.06 | 71 | 1024.9 |
| 20260903023928 | 81 | 224 | 0.0 | 0.0 | 0.00 | 0.06 | 0.06 | 70 | 1024.9 |
| 20260903023202 | 81 | 224 | 0.0 | 0.0 | 0.00 | 0.06 | 0.06 | 70 | 1024.8 |
| 20260903022650 | 81 | 224 | 0.0 | 0.0 | 0.00 | 0.06 | 0.06 | 69 | 1024.8 |
| 20260903022352 | 82 | 224 | 0.0 | 0.0 | 0.00 | 0.06 | 0.06 | 69 | 1024.8 |
| 20260903021618 | 82 | 224 | 0.0 | 0.0 | 0.00 | 0.06 | 0.06 | 68 | 1024.8 |
| 20260903021115 | 82 | 224 | 0.0 | 0.0 | 0.00 | 0.06 | 0.06 | 68 | 1024.8 |
| 20260903020614 | 82 | 224 | 0.0 | 0.0 | 0.00 | 0.06 | 0.06 | 67 | 1024.9 |
| 20260903020048 | 82 | 224 | 0.0 | 0.0 | 0.00 | 0.06 | 0.06 | 67 | 1024.8 |
| 20260903015548 | 82 | 224 | 0.0 | 0.0 | 0.00 | 0.06 | 0.06 | 67 | 1024.8 |
| 20260903015051 | 82 | 224 | 0.0 | 0.0 | 0.00 | 0.06 | 0.06 | 67 | 1024.8 |
| 20260903014753 | 83 | 224 | 0.0 | 0.0 | 0.00 | 0.06 | 0.06 | 66 | 1024.8 |
| 20260903014021 | 83 | 224 | 0.0 | 0.0 | 0.00 | 0.06 | 0.06 | 65 | 1024.6 |
| 20260903013456 | 83 | 224 | 0.0 | 0.0 | 0.00 | 0.06 | 0.06 | 65 | 1024.6 |
| 20260903012935 | 83 | 224 | 0.0 | 0.0 | 0.00 | 0.06 | 0.06 | 64 | 1024.5 |
| 20260903012706 | 83 | 224 | 0.0 | 0.0 | 0.00 | 0.06 | 0.06 | 64 | 1024.5 |
| 20260903011932 | 83 | 224 | 0.0 | 0.0 | 0.00 | 0.06 | 0.06 | 64 | 1024.4 |
| 20260903011431 | 83 | 224 | 0.0 | 0.0 | 0.00 | 0.06 | 0.06 | 64 | 1024.3 |
| 20260903010905 | 84 | 224 | 0.0 | 0.0 | 0.00 | 0.06 | 0.06 | 64 | 1024.4 |
| 20260903010337 | 84 | 224 | 0.0 | 0.0 | 0.00 | 0.06 | 0.06 | 63 | 1024.3 |
| 20260903005835 | 84 | 224 | 0.0 | 0.0 | 0.00 | 0.06 | 0.06 | 63 | 1024.2 |
| 20260903005309 | 84 | 224 | 0.0 | 0.0 | 0.00 | 0.06 | 0.06 | 63 | 1024.2 |
| 20260903004741 | 84 | 224 | 0.0 | 0.0 | 0.00 | 0.06 | 0.06 | 63 | 1024.1 |
| 20260903004240 | 85 | 223 | 0.0 | 0.0 | 0.00 | 0.06 | 0.06 | 62 | 1024.2 |
| 20260903003941 | 85 | 223 | 0.0 | 0.0 | 0.00 | 0.06 | 0.06 | 61 | 1024.1 |
| 20260903003440 | 85 | 223 | 0.0 | 0.0 | 0.00 | 0.06 | 0.06 | 61 | 1024.2 |
| 20260903002641 | 86 | 223 | 0.0 | 0.0 | 0.00 | 0.06 | 0.06 | 60 | 1024.2 |
| 20260903002133 | 86 | 223 | 0.0 | 0.0 | 0.00 | 0.06 | 0.06 | 60 | 1024.2 |
| 20260903001605 | 86 | 223 | 0.0 | 0.0 | 0.00 | 0.06 | 0.06 | 59 | 1024.2 |
| 20260903001334 | 86 | 223 | 0.0 | 0.0 | 0.00 | 0.06 | 0.06 | 59 | 1024.3 |
| 20260903001038 | 87 | 223 | 0.0 | 0.0 | 0.00 | 0.06 | 0.06 | 59 | 1024.2 |
| 20260903000034 | 87 | 223 | 0.0 | 0.0 | 0.00 | 0.06 | 0.06 | 58 | 1024.2 |
| 20260902235505 | 87 | 223 | 0.0 | 0.0 | 0.00 | 0.06 | 0.06 | 58 | 1024.3 |
| 20260902234955 | 87 | 223 | 0.0 | 0.0 | 0.00 | 0.06 | 0.06 | 57 | 1024.3 |
| 20260902234451 | 88 | 223 | 0.0 | 0.0 | 0.00 | 0.06 | 0.06 | 56 | 1024.3 |
| 20260902233928 | 88 | 223 | 0.0 | 0.0 | 0.00 | 0.06 | 0.06 | 56 | 1024.2 |
| 20260902233631 | 88 | 223 | 0.0 | 0.0 | 0.00 | 0.06 | 0.06 | 55 | 1024.3 |
| 20260902232858 | 89 | 223 | 0.0 | 0.0 | 0.00 | 0.06 | 0.06 | 55 | 1024.4 |
| 20260902232355 | 89 | 223 | 0.0 | 0.0 | 0.00 | 0.06 | 0.06 | 54 | 1024.3 |
| 20260902231900 | 89 | 223 | 0.0 | 0.0 | 0.00 | 0.06 | 0.06 | 54 | 1024.4 |
| 20260902231331 | 90 | 223 | 0.0 | 0.0 | 0.00 | 0.06 | 0.06 | 52 | 1024.3 |
| 20260902230830 | 91 | 223 | 0.0 | 0.0 | 0.00 | 0.06 | 0.06 | 51 | 1024.4 |
| 20260902230304 | 91 | 223 | 0.0 | 0.0 | 0.00 | 0.06 | 0.06 | 51 | 1024.4 |
| 20260902225736 | 92 | 223 | 0.0 | 0.0 | 0.00 | 0.06 | 0.06 | 51 | 1024.4 |
| 20260902225502 | 92 | 223 | 0.0 | 0.0 | 0.00 | 0.06 | 0.06 | 50 | 1024.3 |
| 20260902224951 | 92 | 223 | 0.0 | 0.0 | 0.00 | 0.06 | 0.06 | 51 | 1024.3 |
| 20260902224218 | 92 | 223 | 0.0 | 0.0 | 0.00 | 0.06 | 0.06 | 50 | 1024.4 |
| 20260902223650 | 92 | 223 | 0.0 | 0.0 | 0.00 | 0.06 | 0.06 | 51 | 1024.4 |
| 20260902223124 | 92 | 224 | 0.0 | 0.0 | 0.00 | 0.06 | 0.06 | 51 | 1024.4 |
| 20260902222555 | 92 | 223 | 0.0 | 0.0 | 0.00 | 0.06 | 0.06 | 50 | 1024.5 |
| 20260902222051 | 92 | 223 | 0.0 | 0.0 | 0.00 | 0.06 | 0.06 | 50 | 1024.4 |
| 20260902221038 | 92 | 229 | 0.0 | 0.0 | 0.00 | 0.06 | 0.06 | 49 | 1024.4 |
| 20260902220807 | 92 | 229 | 0.0 | 0.0 | 0.00 | 0.06 | 0.06 | 49 | 1024.4 |
| 20260902220247 | 92 | 229 | 0.0 | 0.0 | 0.00 | 0.06 | 0.06 | 49 | 1024.4 |
| 20260902215746 | 92 | 184 | 0.0 | 0.0 | 0.00 | 0.06 | 0.06 | 50 | 1024.4 |
| 20260902215014 | 92 | 219 | 0.0 | 0.0 | 0.00 | 0.06 | 0.06 | 49 | 1024.4 |
| 20260902214515 | 92 | 217 | 0.0 | 0.0 | 0.00 | 0.06 | 0.06 | 49 | 1024.6 |
| 20260902214003 | 92 | 192 | 0.0 | 0.0 | 0.00 | 0.06 | 0.06 | 50 | 1024.6 |
| 20260902213506 | 92 | 87 | 0.0 | 0.0 | 0.00 | 0.06 | 0.06 | 50 | 1024.5 |
| 20260902213209 | 93 | 231 | 0.0 | 0.9 | 0.00 | 0.06 | 0.06 | 48 | 1024.8 |
| 20260902212707 | 92 | 231 | 0.0 | 0.9 | 0.00 | 0.06 | 0.06 | 49 | 1024.8 |
| 20260902211933 | 93 | 195 | 0.0 | 0.0 | 0.00 | 0.06 | 0.06 | 47 | 1024.8 |
| 20260902211704 | 92 | 129 | 0.0 | 0.0 | 0.00 | 0.06 | 0.06 | 49 | 1024.8 |
| 20260902211200 | 92 | 129 | 0.0 | 0.0 | 0.00 | 0.06 | 0.06 | 49 | 1024.9 |
| 20260902210655 | 91 | 77 | 0.0 | 0.0 | 0.00 | 0.06 | 0.06 | 50 | 1024.9 |
| 20260902205921 | 91 | 77 | 0.0 | 0.0 | 0.00 | 0.06 | 0.06 | 50 | 1024.9 |
| 20260902205422 | 92 | 95 | 0.0 | 0.0 | 0.00 | 0.06 | 0.06 | 49 | 1024.9 |
| 20260902204900 | 92 | 102 | 0.0 | 0.0 | 0.00 | 0.06 | 0.06 | 50 | 1024.9 |
| 20260902204352 | 91 | 38 | 0.0 | 0.0 | 0.00 | 0.06 | 0.06 | 50 | 1024.8 |
| 20260902203851 | 91 | 125 | 0.0 | 0.0 | 0.00 | 0.06 | 0.06 | 48 | 1024.9 |
| 20260902203613 | 92 | 230 | 0.0 | 0.0 | 0.00 | 0.06 | 0.06 | 50 | 1024.9 |
| 20260902203113 | 91 | 196 | 0.0 | 0.0 | 0.00 | 0.06 | 0.06 | 50 | 1024.8 |
| 20260902202615 | 91 | 31 | 0.0 | 0.0 | 0.00 | 0.06 | 0.06 | 51 | 1024.8 |
| 20260902201824 | 90 | 36 | 0.0 | 0.0 | 0.00 | 0.06 | 0.06 | 50 | 1024.9 |
| 20260902201313 | 90 | 61 | 0.0 | 0.0 | 0.00 | 0.06 | 0.06 | 51 | 1025.1 |
| 20260902201029 | 90 | 53 | 0.0 | 0.0 | 0.00 | 0.06 | 0.06 | 52 | 1025.1 |
| 20260902200300 | 89 | 43 | 0.0 | 0.0 | 0.00 | 0.06 | 0.06 | 53 | 1025.2 |
| 20260902200249 | 88 | 28 | 0.0 | 0.0 | 0.00 | 0.06 | 0.06 | 53 | 1025.3 |
| 20260902195246 | 88 | 28 | 0.0 | 0.0 | 0.00 | 0.06 | 0.06 | 52 | 1025.4 |
| 20260902194748 | 89 | 25 | 0.0 | 0.0 | 0.00 | 0.06 | 0.06 | 52 | 1025.5 |
| 20260902194242 | 89 | 65 | 0.0 | 0.0 | 0.00 | 0.06 | 0.06 | 53 | 1025.6 |
| 20260902193739 | 89 | 13 | 0.0 | 0.0 | 0.00 | 0.06 | 0.06 | 51 | 1025.6 |
| 20260902193242 | 89 | 273 | 0.0 | 0.0 | 0.00 | 0.06 | 0.06 | 53 | 1025.7 |
| 20260902192736 | 89 | 30 | 0.0 | 0.0 | 0.00 | 0.06 | 0.06 | 53 | 1025.7 |
| 20260902192233 | 88 | 41 | 0.0 | 0.0 | 0.00 | 0.06 | 0.06 | 54 | 1025.7 |
| 20260902191736 | 87 | 41 | 0.0 | 0.0 | 0.00 | 0.06 | 0.06 | 55 | 1025.7 |
| 20260902191506 | 88 | 28 | 0.0 | 0.0 | 0.00 | 0.06 | 0.06 | 54 | 1025.7 |
| 20260902190705 | 88 | 61 | 0.0 | 0.0 | 0.00 | 0.06 | 0.06 | 54 | 1025.7 |
| 20260902190149 | 88 | 55 | 0.0 | 0.0 | 0.00 | 0.06 | 0.06 | 57 | 1025.7 |
| 20260902185639 | 88 | 159 | 0.0 | 0.0 | 0.00 | 0.06 | 0.06 | 55 | 1025.8 |
| 20260902185137 | 88 | 170 | 0.0 | 0.0 | 0.00 | 0.06 | 0.06 | 54 | 1025.8 |
| 20260902184635 | 88 | 205 | 0.0 | 0.0 | 0.00 | 0.06 | 0.06 | 54 | 1025.9 |
| 20260902184133 | 88 | 226 | 0.0 | 0.0 | 0.00 | 0.06 | 0.06 | 54 | 1025.9 |
| 20260902183607 | 87 | 12 | 0.0 | 0.0 | 0.00 | 0.06 | 0.06 | 56 | 1026.0 |
| 20260902183101 | 86 | 32 | 0.0 | 0.0 | 0.00 | 0.06 | 0.06 | 58 | 1026.0 |
| 20260902182559 | 86 | 29 | 0.0 | 0.0 | 0.00 | 0.06 | 0.06 | 57 | 1025.9 |
| 20260902182101 | 86 | 26 | 0.0 | 0.0 | 0.00 | 0.06 | 0.06 | 58 | 1025.9 |
| 20260902181547 | 85 | 88 | 0.0 | 0.0 | 0.00 | 0.06 | 0.06 | 58 | 1025.9 |
| 20260902181045 | 85 | 87 | 0.0 | 0.0 | 0.00 | 0.06 | 0.06 | 62 | 1025.9 |
| 20260902180546 | 85 | 94 | 0.0 | 0.0 | 0.00 | 0.06 | 0.06 | 62 | 1026.1 |
| 20260902180040 | 85 | 34 | 0.0 | 0.0 | 0.00 | 0.06 | 0.06 | 60 | 1026.2 |
| 20260902175540 | 85 | 323 | 0.0 | 0.0 | 0.00 | 0.06 | 0.06 | 60 | 1026.3 |
| 20260902175012 | 84 | 5 | 0.0 | 0.0 | 0.00 | 0.06 | 0.06 | 61 | 1026.2 |
| 20260902174515 | 84 | 29 | 0.0 | 0.0 | 0.00 | 0.06 | 0.06 | 62 | 1026.2 |
| 20260902173946 | 84 | 90 | 0.0 | 0.0 | 0.00 | 0.06 | 0.06 | 62 | 1026.3 |
| 20260902173439 | 84 | 0 | 0.0 | 0.0 | 0.00 | 0.06 | 0.06 | 62 | 1026.5 |
| 20260902172910 | 83 | 21 | 0.0 | 0.0 | 0.00 | 0.06 | 0.06 | 62 | 1026.5 |
| 20260902172343 | 83 | 21 | 0.0 | 0.0 | 0.00 | 0.06 | 0.06 | 62 | 1026.6 |
| 20260902171819 | 83 | 139 | 0.0 | 0.0 | 0.00 | 0.06 | 0.06 | 63 | 1026.8 |
| 20260902171250 | 83 | 92 | 0.0 | 0.0 | 0.00 | 0.06 | 0.06 | 63 | 1026.9 |
| 20260902171026 | 82 | 134 | 0.0 | 0.0 | 0.00 | 0.06 | 0.06 | 65 | 1027.0 |
| 20260902170212 | 81 | 107 | 0.0 | 0.0 | 0.00 | 0.06 | 0.06 | 65 | 1027.2 |
| 20260902165709 | 81 | 129 | 0.0 | 0.0 | 0.00 | 0.06 | 0.06 | 65 | 1027.4 |
| 20260902165208 | 82 | 219 | 0.0 | 0.0 | 0.00 | 0.06 | 0.06 | 64 | 1027.3 |
| 20260902164642 | 81 | 86 | 0.0 | 0.0 | 0.00 | 0.06 | 0.06 | 66 | 1027.3 |
| 20260902164118 | 80 | 86 | 0.0 | 0.0 | 0.00 | 0.06 | 0.06 | 67 | 1027.2 |
| 20260902163621 | 79 | 84 | 0.0 | 0.0 | 0.00 | 0.06 | 0.06 | 68 | 1026.9 |
| 20260902163102 | 79 | 84 | 0.0 | 0.0 | 0.00 | 0.06 | 0.06 | 69 | 1026.9 |
| 20260902162600 | 78 | 5 | 0.0 | 0.0 | 0.00 | 0.06 | 0.06 | 68 | 1026.9 |
| 20260902162052 | 78 | 107 | 0.0 | 0.0 | 0.00 | 0.06 | 0.06 | 69 | 1026.9 |
| 20260902161550 | 78 | 54 | 0.0 | 0.0 | 0.00 | 0.06 | 0.06 | 70 | 1026.8 |
| 20260902161021 | 79 | 100 | 0.0 | 0.0 | 0.00 | 0.06 | 0.06 | 68 | 1026.8 |
| 20260902160518 | 79 | 100 | 0.0 | 0.0 | 0.00 | 0.06 | 0.06 | 68 | 1026.8 |
| 20260902160012 | 79 | 105 | 0.0 | 0.0 | 0.00 | 0.06 | 0.06 | 69 | 1026.7 |
| 20260902155449 | 79 | 241 | 0.0 | 0.0 | 0.00 | 0.06 | 0.06 | 69 | 1026.7 |
| 20260902154949 | 78 | 76 | 0.0 | 0.0 | 0.00 | 0.06 | 0.06 | 71 | 1026.7 |
| 20260902154453 | 77 | 75 | 0.0 | 0.0 | 0.00 | 0.06 | 0.06 | 72 | 1026.5 |
| 20260902154156 | 76 | 71 | 0.0 | 0.0 | 0.00 | 0.06 | 0.06 | 74 | 1026.5 |
| 20260902153423 | 76 | 81 | 0.0 | 0.0 | 0.00 | 0.06 | 0.06 | 76 | 1026.5 |
| 20260902152910 | 75 | 28 | 0.0 | 0.0 | 0.00 | 0.06 | 0.06 | 77 | 1026.5 |
| 20260902152343 | 75 | 79 | 0.0 | 0.0 | 0.00 | 0.06 | 0.06 | 77 | 1026.6 |
| 20260902152110 | 74 | 29 | 0.0 | 0.0 | 0.00 | 0.06 | 0.06 | 77 | 1026.4 |
| 20260902151338 | 74 | 22 | 0.0 | 0.0 | 0.00 | 0.06 | 0.06 | 78 | 1026.3 |
| 20260902150834 | 74 | 24 | 0.0 | 0.0 | 0.00 | 0.06 | 0.06 | 78 | 1026.3 |
| 20260902150330 | 73 | 80 | 0.0 | 0.0 | 0.00 | 0.06 | 0.06 | 79 | 1026.3 |
| 20260902145807 | 73 | 68 | 0.0 | 0.0 | 0.00 | 0.06 | 0.06 | 79 | 1026.4 |
| 20260902145238 | 73 | 96 | 0.0 | 0.0 | 0.00 | 0.06 | 0.06 | 81 | 1026.4 |
| 20260902144735 | 72 | 68 | 0.0 | 0.0 | 0.00 | 0.06 | 0.06 | 82 | 1026.4 |
| 20260902144502 | 71 | 41 | 0.0 | 0.0 | 0.00 | 0.06 | 0.06 | 82 | 1026.4 |
| 20260902143730 | 71 | 108 | 0.0 | 0.0 | 0.00 | 0.06 | 0.06 | 82 | 1026.4 |
| 20260902143226 | 71 | 74 | 0.0 | 0.0 | 0.00 | 0.06 | 0.06 | 83 | 1026.4 |
| 20260902142716 | 71 | 34 | 0.0 | 0.0 | 0.00 | 0.06 | 0.06 | 83 | 1026.5 |
| 20260902142213 | 71 | 67 | 0.0 | 0.0 | 0.00 | 0.06 | 0.06 | 84 | 1026.6 |
| 20260902141931 | 70 | 78 | 0.0 | 0.0 | 0.00 | 0.06 | 0.06 | 85 | 1026.7 |
| 20260902141132 | 69 | 76 | 0.0 | 0.0 | 0.00 | 0.06 | 0.06 | 86 | 1026.7 |
| 20260902140630 | 69 | 26 | 0.0 | 0.0 | 0.00 | 0.06 | 0.06 | 87 | 1026.8 |
| 20260902140113 | 69 | 99 | 0.0 | 0.0 | 0.00 | 0.06 | 0.06 | 88 | 1026.7 |
| 20260902135617 | 68 | 5 | 0.0 | 0.0 | 0.00 | 0.06 | 0.06 | 87 | 1026.8 |
| 20260902135051 | 68 | 30 | 0.0 | 0.0 | 0.00 | 0.06 | 0.06 | 87 | 1026.8 |
| 20260902134522 | 68 | 59 | 0.0 | 0.0 | 0.00 | 0.06 | 0.06 | 87 | 1026.6 |
| 20260902134021 | 68 | 90 | 0.0 | 0.0 | 0.00 | 0.06 | 0.06 | 88 | 1026.5 |
| 20260902133455 | 68 | 95 | 0.0 | 0.0 | 0.00 | 0.06 | 0.06 | 89 | 1026.5 |
| 20260902132955 | 67 | 56 | 0.0 | 0.0 | 0.00 | 0.06 | 0.06 | 90 | 1026.6 |
| 20260902132454 | 67 | 26 | 0.0 | 0.0 | 0.00 | 0.06 | 0.06 | 90 | 1026.5 |
| 20260902131947 | 67 | 23 | 0.0 | 0.0 | 0.00 | 0.06 | 0.06 | 90 | 1026.6 |
| 20260902131421 | 67 | 23 | 0.0 | 0.0 | 0.00 | 0.06 | 0.06 | 90 | 1026.6 |
| 20260902131123 | 67 | 74 | 0.0 | 0.0 | 0.00 | 0.06 | 0.06 | 90 | 1026.6 |
| 20260902130623 | 66 | 71 | 0.0 | 0.0 | 0.00 | 0.06 | 0.06 | 91 | 1026.6 |
| 20260902125830 | 66 | 71 | 0.0 | 0.0 | 0.00 | 0.06 | 0.06 | 92 | 1026.7 |
| 20260902125331 | 66 | 71 | 0.0 | 0.0 | 0.00 | 0.06 | 0.06 | 92 | 1026.7 |
| 20260902124824 | 66 | 71 | 0.0 | 0.0 | 0.00 | 0.06 | 0.06 | 92 | 1026.5 |
| 20260902124301 | 65 | 64 | 0.0 | 0.0 | 0.00 | 0.06 | 0.06 | 92 | 1026.6 |
| 20260902124008 | 65 | 101 | 0.0 | 0.0 | 0.00 | 0.06 | 0.06 | 92 | 1026.6 |
| 20260902123206 | 65 | 101 | 0.0 | 0.0 | 0.00 | 0.06 | 0.06 | 92 | 1026.5 |
| 20260902122933 | 65 | 100 | 0.0 | 0.0 | 0.00 | 0.06 | 0.06 | 92 | 1026.4 |
| 20260902122153 | 65 | 105 | 0.0 | 0.0 | 0.00 | 0.06 | 0.06 | 93 | 1026.3 |
| 20260902121644 | 65 | 90 | 0.0 | 0.0 | 0.00 | 0.06 | 0.06 | 93 | 1026.2 |
| 20260902121141 | 65 | 101 | 0.0 | 0.0 | 0.00 | 0.06 | 0.06 | 93 | 1026.2 |
| 20260902120634 | 65 | 106 | 0.0 | 0.0 | 0.00 | 0.06 | 0.06 | 93 | 1026.3 |
| 20260902120133 | 65 | 105 | 0.0 | 0.0 | 0.00 | 0.06 | 0.06 | 93 | 1026.3 |
| 20260902115628 | 65 | 115 | 0.0 | 0.0 | 0.00 | 0.06 | 0.06 | 93 | 1026.4 |
| 20260902115401 | 65 | 115 | 0.0 | 0.0 | 0.00 | 0.06 | 0.06 | 93 | 1026.5 |
| 20260902114605 | 66 | 120 | 0.0 | 0.0 | 0.00 | 0.06 | 0.06 | 93 | 1026.4 |
| 20260902114036 | 66 | 111 | 0.0 | 0.0 | 0.00 | 0.06 | 0.06 | 93 | 1026.4 |
| 20260902113535 | 66 | 111 | 0.0 | 0.0 | 0.00 | 0.06 | 0.06 | 93 | 1026.5 |
| 20260902113006 | 66 | 110 | 0.0 | 0.0 | 0.00 | 0.06 | 0.06 | 93 | 1026.4 |
| 20260902112502 | 66 | 96 | 0.0 | 0.0 | 0.00 | 0.06 | 0.06 | 93 | 1026.5 |
| 20260902111952 | 66 | 98 | 0.0 | 0.0 | 0.00 | 0.06 | 0.06 | 93 | 1026.5 |
| 20260902111448 | 66 | 111 | 0.0 | 0.0 | 0.00 | 0.06 | 0.06 | 94 | 1026.8 |
| 20260902110922 | 66 | 218 | 0.0 | 0.0 | 0.00 | 0.06 | 0.06 | 93 | 1027.2 |
| 20260902110420 | 66 | 217 | 0.0 | 0.0 | 0.00 | 0.06 | 0.06 | 93 | 1027.5 |
| 20260902105920 | 66 | 217 | 0.0 | 0.0 | 0.00 | 0.06 | 0.06 | 93 | 1027.6 |
| 20260902105400 | 66 | 217 | 0.0 | 0.0 | 0.00 | 0.06 | 0.06 | 93 | 1027.4 |
| 20260902104856 | 66 | 217 | 0.0 | 0.0 | 0.00 | 0.06 | 0.06 | 93 | 1027.3 |
| 20260902104358 | 66 | 217 | 0.0 | 0.0 | 0.00 | 0.06 | 0.06 | 93 | 1026.9 |
| 20260902103834 | 66 | 217 | 0.0 | 0.0 | 0.00 | 0.06 | 0.06 | 93 | 1026.8 |
| 20260902103310 | 66 | 206 | 0.0 | 0.0 | 0.00 | 0.06 | 0.06 | 92 | 1027.0 |
| 20260902102804 | 66 | 194 | 0.0 | 0.0 | 0.00 | 0.06 | 0.06 | 92 | 1027.3 |
| 20260902102307 | 66 | 227 | 0.0 | 0.0 | 0.00 | 0.06 | 0.06 | 92 | 1027.5 |
| 20260902101755 | 66 | 227 | 0.0 | 0.0 | 0.00 | 0.06 | 0.06 | 92 | 1027.6 |
| 20260902101232 | 66 | 227 | 0.0 | 0.0 | 0.00 | 0.06 | 0.06 | 92 | 1027.5 |
| 20260902101002 | 66 | 227 | 0.0 | 0.0 | 0.00 | 0.06 | 0.06 | 92 | 1027.5 |
| 20260902100229 | 66 | 231 | 0.0 | 0.0 | 0.00 | 0.06 | 0.06 | 91 | 1027.4 |
| 20260902095957 | 66 | 234 | 0.0 | 0.0 | 0.00 | 0.06 | 0.06 | 91 | 1027.2 |
| 20260902095458 | 66 | 223 | 0.0 | 0.9 | 0.00 | 0.06 | 0.06 | 91 | 1027.2 |
| 20260902094930 | 66 | 194 | 0.0 | 1.7 | 0.00 | 0.06 | 0.06 | 91 | 1026.9 |
| 20260902094136 | 66 | 192 | 0.0 | 1.7 | 0.00 | 0.06 | 0.06 | 90 | 1026.5 |
| 20260902093636 | 66 | 211 | 0.0 | 0.9 | 0.00 | 0.06 | 0.06 | 90 | 1026.3 |
| 20260902093129 | 66 | 197 | 0.0 | 0.9 | 0.00 | 0.06 | 0.06 | 90 | 1026.2 |
| 20260902092630 | 66 | 211 | 0.0 | 0.9 | 0.00 | 0.06 | 0.06 | 90 | 1026.1 |
| 20260902092120 | 66 | 175 | 0.0 | 0.0 | 0.00 | 0.06 | 0.06 | 90 | 1026.0 |
| 20260902091848 | 66 | 198 | 0.0 | 0.0 | 0.00 | 0.06 | 0.06 | 90 | 1026.1 |
| 20260902091055 | 66 | 217 | 0.0 | 1.7 | 0.00 | 0.06 | 0.06 | 90 | 1026.1 |
| 20260902090536 | 66 | 169 | 0.0 | 3.5 | 0.00 | 0.06 | 0.06 | 89 | 1026.2 |
| 20260902090312 | 66 | 176 | 0.0 | 3.5 | 0.00 | 0.06 | 0.06 | 89 | 1026.3 |
| 20260902085517 | 66 | 217 | 0.0 | 0.0 | 0.00 | 0.06 | 0.06 | 89 | 1025.9 |
| 20260902085016 | 66 | 217 | 0.0 | 0.0 | 0.00 | 0.06 | 0.06 | 89 | 1025.8 |
| 20260902084512 | 66 | 174 | 0.0 | 0.0 | 0.00 | 0.06 | 0.06 | 88 | 1026.0 |
| 20260902083951 | 66 | 107 | 0.0 | 8.7 | 0.00 | 0.06 | 0.06 | 88 | 1025.3 |
| 20260902083423 | 66 | 61 | 0.0 | 8.7 | 0.00 | 0.06 | 0.06 | 88 | 1024.8 |
| 20260902082857 | 66 | 30 | 0.0 | 0.0 | 0.00 | 0.06 | 0.06 | 88 | 1024.9 |
| 20260902082837 | 66 | 37 | 0.0 | 0.9 | 0.00 | 0.06 | 0.06 | 88 | 1025.2 |
| 20260902081812 | 66 | 27 | 0.0 | 0.9 | 0.00 | 0.06 | 0.06 | 89 | 1025.2 |
| 20260902081304 | 66 | 38 | 0.0 | 0.9 | 0.01 | 0.06 | 0.06 | 89 | 1025.6 |
| 20260902081040 | 66 | 26 | 0.0 | 0.0 | 0.02 | 0.06 | 0.06 | 89 | 1025.6 |
| 20260902080251 | 66 | 26 | 0.0 | 0.0 | 0.03 | 0.06 | 0.06 | 89 | 1025.8 |
| 20260902075751 | 67 | 63 | 0.0 | 0.0 | 0.04 | 0.06 | 0.06 | 89 | 1025.9 |
| 20260902075521 | 67 | 94 | 0.0 | 0.0 | 0.04 | 0.06 | 0.06 | 90 | 1026.0 |
| 20260902074746 | 67 | 84 | 0.0 | 0.9 | 0.04 | 0.06 | 0.06 | 90 | 1026.1 |
| 20260902074246 | 67 | 94 | 0.0 | 0.9 | 0.05 | 0.06 | 0.06 | 90 | 1026.3 |
| 20260902073748 | 67 | 69 | 0.0 | 2.6 | 0.05 | 0.06 | 0.06 | 89 | 1026.6 |
| 20260902073224 | 66 | 101 | 0.0 | 2.6 | 0.06 | 0.06 | 0.06 | 89 | 1026.2 |
| 20260902072704 | 66 | 65 | 0.0 | 3.5 | 0.06 | 0.06 | 0.06 | 88 | 1025.8 |
| 20260902072205 | 67 | 86 | 0.0 | 3.5 | 0.06 | 0.06 | 0.06 | 89 | 1025.8 |
| 20260902071641 | 67 | 94 | 0.0 | 3.5 | 0.06 | 0.06 | 0.06 | 88 | 1026.0 |
| 20260902071127 | 67 | 127 | 0.0 | 3.5 | 0.05 | 0.05 | 0.05 | 87 | 1026.0 |
| 20260902070603 | 67 | 75 | 0.0 | 3.5 | 0.04 | 0.04 | 0.04 | 86 | 1026.3 |
| 20260902070041 | 68 | 90 | 0.0 | 3.5 | 0.03 | 0.03 | 0.03 | 86 | 1026.8 |
| 20260902065513 | 69 | 101 | 0.0 | 3.5 | 0.02 | 0.02 | 0.02 | 86 | 1027.3 |
| 20260902065456 | 69 | 113 | 0.0 | 0.9 | 0.02 | 0.02 | 0.02 | 86 | 1027.7 |
| 20260902064427 | 70 | 135 | 0.0 | 4.3 | 0.01 | 0.01 | 0.01 | 84 | 1028.2 |
| 20260902064147 | 70 | 217 | 0.0 | 4.3 | 0.01 | 0.01 | 0.01 | 84 | 1028.7 |
| 20260902063351 | 70 | 225 | 0.9 | 13.0 | 0.00 | 0.00 | 0.01 | 83 | 1029.1 |
| 20260902063055 | 71 | 192 | 2.6 | 13.0 | 0.00 | 0.00 | 0.00 | 83 | 1029.3 |
| 20260902062300 | 71 | 253 | 2.6 | 13.9 | 0.00 | 0.00 | 0.00 | 83 | 1030.0 |
| 20260902061758 | 72 | 236 | 0.9 | 13.9 | 0.00 | 0.00 | 0.00 | 83 | 1029.7 |
| 20260902061255 | 73 | 224 | 0.0 | 0.9 | 0.00 | 0.00 | 0.00 | 83 | 1028.9 |
| 20260902060734 | 73 | 13 | 0.0 | 0.0 | 0.00 | 0.00 | 0.00 | 82 | 1028.2 |